When you browse on this site, cookies collect data to enhance your experience and personalize the content and advertising you see.
Visit our Privacy Policy to learn more. By continuing to use the site, you agree to this use of cookies and data.
  • In Österreich
  • Länderverzeichnis
  • Für 7 Tage
  • Wassertemperatur
  • Wetterkarte
  • News
  • Widgets
  • user-avatar
    Anmelden

    Stündliche Wetter Graz

    Heute, 22 Oktober, Dienstag

    Zeit Temperatur Niederschläge Wind Luftdruck Luftfeuchtigkeit
    00:00 +15°C° 0 mm 1 m/S 727 mmHg 91%
    01:00 +15°C° 0 mm 2 m/S 728 mmHg 91%
    02:00 +14°C° 0 mm 1 m/S 727 mmHg 90%
    03:00 +14°C° 0 mm 1 m/S 727 mmHg 90%
    04:00 +14°C° 0 mm 1 m/S 727 mmHg 89%
    05:00 +13°C° 0 mm 1 m/S 728 mmHg 88%
    06:00 +13°C° 0 mm 1 m/S 728 mmHg 88%
    07:00 +13°C° 0 mm 1 m/S 728 mmHg 87%
    08:00 +15°C° 0 mm 1 m/S 729 mmHg 81%
    09:00 +16°C° 0 mm 0 m/S 729 mmHg 74%
    10:00 +18°C° 0 mm 0 m/S 729 mmHg 68%
    11:00 +19°C° 0 mm 0 m/S 729 mmHg 66%
    12:00 +22°C° 0 mm 1 m/S 729 mmHg 64%
    13:00 +23°C° 0 mm 1 m/S 729 mmHg 62%
    14:00 +22°C° 0 mm 1 m/S 729 mmHg 67%
    15:00 +21°C° 0 mm 1 m/S 728 mmHg 71%
    16:00 +21°C° 0 mm 1 m/S 728 mmHg 76%
    17:00 +19°C° 0 mm 1 m/S 728 mmHg 81%
    18:00 +16°C° 0 mm 0 m/S 728 mmHg 86%
    19:00 +14°C° 0 mm 0 m/S 728 mmHg 90%
    20:00 +14°C° 0 mm 0 m/S 728 mmHg 91%
    21:00 +14°C° 0 mm 0 m/S 728 mmHg 91%
    22:00 +14°C° 0 mm 1 m/S 728 mmHg 91%
    23:00 +14°C° 0 mm 1 m/S 728 mmHg 92%

    Morgen, 23 Oktober, Mittwoch

    Zeit Temperatur Niederschläge Wind Luftdruck Luftfeuchtigkeit
    00:00 +14°C° 0 mm 1 m/S 727 mmHg 92%
    01:00 +14°C° 0 mm 1 m/S 727 mmHg 92%
    02:00 +13°C° 0 mm 1 m/S 727 mmHg 92%
    03:00 +13°C° 0 mm 1 m/S 727 mmHg 92%
    04:00 +13°C° 0 mm 1 m/S 727 mmHg 92%
    05:00 +13°C° 0 mm 1 m/S 727 mmHg 92%
    06:00 +13°C° 0 mm 1 m/S 726 mmHg 92%
    07:00 +12°C° 0 mm 0 m/S 726 mmHg 92%
    08:00 +14°C° 0 mm 0 m/S 726 mmHg 84%
    09:00 +16°C° 0 mm 0 m/S 726 mmHg 76%
    10:00 +19°C° 0 mm 0 m/S 726 mmHg 69%
    11:00 +21°C° 0 mm 1 m/S 726 mmHg 65%
    12:00 +22°C° 0 mm 1 m/S 726 mmHg 61%
    13:00 +23°C° 0 mm 1 m/S 726 mmHg 58%
    14:00 +22°C° 0 mm 1 m/S 725 mmHg 64%
    15:00 +21°C° 0 mm 1 m/S 725 mmHg 69%
    16:00 +20°C° 0 mm 1 m/S 724 mmHg 75%
    17:00 +19°C° 0 mm 1 m/S 724 mmHg 79%
    18:00 +16°C° 0 mm 1 m/S 724 mmHg 83%
    19:00 +15°C° 0 mm 1 m/S 724 mmHg 86%
    20:00 +15°C° 0 mm 1 m/S 724 mmHg 87%
    21:00 +14°C° 0 mm 1 m/S 724 mmHg 87%
    22:00 +14°C° 0 mm 1 m/S 724 mmHg 87%
    23:00 +14°C° 0 mm 1 m/S 724 mmHg 88%

    übermorgen, 24 Oktober, Donnerstag

    Zeit Temperatur Niederschläge Wind Luftdruck Luftfeuchtigkeit
    00:00 +13°C° 0 mm 1 m/S 724 mmHg 88%
    01:00 +13°C° 0 mm 1 m/S 723 mmHg 88%
    02:00 +13°C° 0 mm 1 m/S 723 mmHg 87%
    03:00 +12°C° 0 mm 1 m/S 723 mmHg 86%
    04:00 +12°C° 0 mm 1 m/S 722 mmHg 86%
    05:00 +12°C° 0 mm 1 m/S 722 mmHg 85%
    06:00 +12°C° 0 mm 1 m/S 722 mmHg 84%
    07:00 +12°C° 0 mm 1 m/S 722 mmHg 83%
    08:00 +14°C° 0 mm 1 m/S 722 mmHg 75%
    09:00 +16°C° 0 mm 1 m/S 722 mmHg 67%
    10:00 +20°C° 0 mm 1 m/S 722 mmHg 58%
    11:00 +21°C° 0 mm 1 m/S 722 mmHg 55%
    12:00 +22°C° 0 mm 1 m/S 722 mmHg 52%
    13:00 +23°C° 0 mm 1 m/S 722 mmHg 49%
    14:00 +22°C° 0 mm 1 m/S 722 mmHg 54%
    15:00 +21°C° 0 mm 1 m/S 722 mmHg 60%
    16:00 +20°C° 0 mm 1 m/S 722 mmHg 66%
    17:00 +19°C° 0 mm 1 m/S 722 mmHg 70%
    18:00 +18°C° 0 mm 1 m/S 722 mmHg 75%
    19:00 +15°C° 0 mm 1 m/S 723 mmHg 80%
    20:00 +15°C° 0 mm 1 m/S 723 mmHg 81%
    21:00 +14°C° 0 mm 1 m/S 723 mmHg 82%
    22:00 +14°C° 0 mm 1 m/S 724 mmHg 83%
    23:00 +14°C° 0 mm 1 m/S 724 mmHg 84%

    25 Oktober, Freitag

    Zeit Temperatur Niederschläge Wind Luftdruck Luftfeuchtigkeit
    00:00 +14°C° 0 mm 1 m/S 724 mmHg 84%
    01:00 +13°C° 0 mm 1 m/S 724 mmHg 85%
    02:00 +13°C° 0 mm 1 m/S 724 mmHg 85%
    03:00 +13°C° 0 mm 1 m/S 725 mmHg 85%
    04:00 +13°C° 0 mm 1 m/S 725 mmHg 85%
    05:00 +13°C° 0 mm 1 m/S 725 mmHg 85%
    06:00 +13°C° 0 mm 1 m/S 726 mmHg 86%
    07:00 +12°C° 0 mm 1 m/S 726 mmHg 86%
    08:00 +15°C° 0 mm 1 m/S 727 mmHg 78%
    09:00 +18°C° 0 mm 1 m/S 727 mmHg 70%
    10:00 +18°C° 0 mm 0 m/S 728 mmHg 62%
    11:00 +19°C° 0 mm 0 m/S 728 mmHg 60%
    12:00 +22°C° 0 mm 1 m/S 728 mmHg 57%
    13:00 +23°C° 0 mm 1 m/S 728 mmHg 55%
    14:00 +22°C° 0 mm 1 m/S 727 mmHg 60%
    15:00 +21°C° 0 mm 1 m/S 727 mmHg 66%
    16:00 +20°C° 0 mm 1 m/S 727 mmHg 71%
    17:00 +18°C° 0 mm 1 m/S 727 mmHg 76%
    18:00 +15°C° 0 mm 0 m/S 727 mmHg 81%
    19:00 +13°C° 0 mm 0 m/S 727 mmHg 86%
    20:00 +13°C° 0 mm 0 m/S 727 mmHg 87%
    21:00 +12°C° 0 mm 0 m/S 727 mmHg 88%
    22:00 +12°C° 0 mm 0 m/S 727 mmHg 89%
    23:00 +12°C° 0 mm 0 m/S 727 mmHg 89%

    26 Oktober, Samstag

    Zeit Temperatur Niederschläge Wind Luftdruck Luftfeuchtigkeit
    00:00 +12°C° 0 mm 1 m/S 727 mmHg 90%
    01:00 +12°C° 0 mm 1 m/S 726 mmHg 90%
    02:00 +12°C° 0 mm 1 m/S 726 mmHg 91%
    03:00 +12°C° 0 mm 1 m/S 726 mmHg 91%
    04:00 +11°C° 0 mm 1 m/S 726 mmHg 91%
    05:00 +11°C° 0 mm 1 m/S 726 mmHg 90%
    06:00 +11°C° 0 mm 1 m/S 726 mmHg 90%
    07:00 +11°C° 0 mm 1 m/S 726 mmHg 89%
    08:00 +14°C° 0 mm 1 m/S 727 mmHg 79%
    09:00 +16°C° 0 mm 1 m/S 727 mmHg 69%
    10:00 +18°C° 0 mm 0 m/S 728 mmHg 60%
    11:00 +19°C° 0 mm 0 m/S 728 mmHg 56%
    12:00 +20°C° 0 mm 0 m/S 727 mmHg 51%
    13:00 +21°C° 0 mm 0 m/S 727 mmHg 47%
    14:00 +20°C° 0 mm 0 m/S 727 mmHg 53%
    15:00 +19°C° 0 mm 0 m/S 726 mmHg 60%
    16:00 +17°C° 0 mm 0 m/S 726 mmHg 66%
    17:00 +16°C° 0 mm 0 m/S 726 mmHg 71%
    18:00 +15°C° 0 mm 0 m/S 726 mmHg 75%
    19:00 +14°C° 0 mm 1 m/S 726 mmHg 79%
    20:00 +14°C° 0 mm 1 m/S 726 mmHg 79%
    21:00 +14°C° 0 mm 1 m/S 727 mmHg 78%
    22:00 +14°C° 0 mm 1 m/S 727 mmHg 78%
    23:00 +13°C° 0 mm 1 m/S 727 mmHg 78%

    27 Oktober, Sonntag

    Zeit Temperatur Niederschläge Wind Luftdruck Luftfeuchtigkeit
    00:00 +13°C° 0 mm 1 m/S 727 mmHg 77%
    01:00 +13°C° 0 mm 1 m/S 726 mmHg 77%
    02:00 +13°C° 0 mm 1 m/S 726 mmHg 77%
    03:00 +12°C° 0 mm 1 m/S 726 mmHg 76%
    04:00 +12°C° 0 mm 1 m/S 726 mmHg 76%
    05:00 +12°C° 0 mm 1 m/S 726 mmHg 76%
    06:00 +12°C° 0 mm 1 m/S 727 mmHg 76%
    07:00 +12°C° 0 mm 1 m/S 727 mmHg 76%
    08:00 +14°C° 0 mm 1 m/S 727 mmHg 71%
    09:00 +16°C° 0 mm 1 m/S 728 mmHg 65%
    10:00 +19°C° 0 mm 1 m/S 728 mmHg 60%
    11:00 +19°C° 0 mm 1 m/S 728 mmHg 60%
    12:00 +20°C° 0 mm 1 m/S 728 mmHg 59%
    13:00 +20°C° 0 mm 1 m/S 728 mmHg 58%
    14:00 +19°C° 0 mm 1 m/S 728 mmHg 64%
    15:00 +18°C° 0 mm 1 m/S 728 mmHg 69%
    16:00 +16°C° 0 mm 1 m/S 727 mmHg 74%
    17:00 +15°C° 0 mm 1 m/S 727 mmHg 78%
    18:00 +13°C° 0 mm 0 m/S 728 mmHg 82%
    19:00 +12°C° 0 mm 0 m/S 728 mmHg 86%
    20:00 +12°C° 0 mm 0 m/S 728 mmHg 87%
    21:00 +12°C° 0 mm 0 m/S 728 mmHg 88%
    22:00 +13°C° 0 mm 1 m/S 728 mmHg 89%
    23:00 +11°C° 0 mm 0 m/S 728 mmHg 89%

    28 Oktober, Montag

    Zeit Temperatur Niederschläge Wind Luftdruck Luftfeuchtigkeit
    00:00 +11°C° 0 mm 0 m/S 728 mmHg 90%
    01:00 +11°C° 0 mm 0 m/S 728 mmHg 90%
    02:00 +11°C° 0 mm 0 m/S 727 mmHg 90%
    03:00 +10°C° 0 mm 0 m/S 727 mmHg 90%
    04:00 +10°C° 0 mm 0 m/S 727 mmHg 90%
    05:00 +10°C° 0 mm 0 m/S 727 mmHg 90%
    06:00 +10°C° 0 mm 0 m/S 727 mmHg 89%
    07:00 +10°C° 0 mm 0 m/S 727 mmHg 89%
    08:00 +12°C° 0 mm 1 m/S 727 mmHg 87%
    09:00 +12°C° 0 mm 1 m/S 727 mmHg 84%
    10:00 +13°C° 0 mm 1 m/S 727 mmHg 82%
    11:00 +13°C° 0.1 mm 1 m/S 727 mmHg 81%
    12:00 +13°C° 0.1 mm 1 m/S 727 mmHg 81%
    13:00 +13°C° 0.1 mm 1 m/S 727 mmHg 80%
    14:00 +13°C° 0 mm 1 m/S 726 mmHg 81%
    15:00 +13°C° 0 mm 1 m/S 726 mmHg 82%
    16:00 +12°C° 0 mm 0 m/S 725 mmHg 83%
    17:00 +11°C° 0 mm 0 m/S 725 mmHg 85%
    18:00 +10°C° 0 mm 0 m/S 725 mmHg 87%
    19:00 +10°C° 0 mm 0 m/S 725 mmHg 90%
    20:00 +9°C° 0 mm 0 m/S 725 mmHg 90%
    21:00 +9°C° 0 mm 0 m/S 725 mmHg 91%
    22:00 +9°C° 0 mm 0 m/S 725 mmHg 92%
    23:00 +9°C° 0 mm 0 m/S 725 mmHg 92%
    Mehr zeigen